Location: Innerarity Island Observatory
(30.3139°N, 87.4867°W)
Time: 23:53:32
(UTC-06:00)

OPAL - Visible Passes

Search period start: 05 March 2015 00:00
Search period end: 15 March 2015 01:00
Orbit: 743 x 796 km, 100.2° (Epoch: 04 March)

Date Brightness Start Highest point End Pass type
(mag) Time Alt. Az. Time Alt. Az. Time Alt. Az.
05 Mar 7.7 18:26:17 10° NNE 18:31:00 44° ESE 18:35:43 10° S visible
05 Mar 10.3 20:06:32 10° NNW 20:09:35 16° WNW 20:12:25 10° WSW visible
06 Mar 8.9 05:35:33 10° SE 05:40:22 43° ENE 05:45:11 10° N visible
06 Mar 8.9 19:29:55 10° N 19:34:29 37° WNW 19:38:59 10° SW visible
07 Mar 10.3 05:01:52 10° ESE 05:05:15 19° ENE 05:08:48 10° NNE visible
07 Mar 7.4 18:54:18 10° NNE 18:59:15 88° ESE 19:04:14 10° SSW visible
08 Mar 8.0 19:19:23 10° NE 19:23:53 35° E 19:28:25 10° SSE visible
08 Mar 10.0 20:58:58 10° NNW 21:02:35 20° WNW 21:06:02 10° WSW visible
09 Mar 9.4 06:28:48 10° SE 06:33:21 34° ENE 06:37:56 10° N visible
09 Mar 8.5 20:22:42 10° N 20:27:27 47° WNW 20:32:10 10° SW visible
10 Mar 10.5 05:55:37 10° E 05:58:16 15° ENE 06:01:09 10° NNE visible
10 Mar 7.4 19:47:15 10° NNE 19:52:12 70° ESE 19:57:09 10° S visible
10 Mar 10.7 21:29:46 10° NW 21:30:36 10° WNW 21:31:06 10° WNW visible
11 Mar 8.3 19:12:36 10° NE 19:16:45 28° E 19:21:01 10° SSE visible
11 Mar 9.6 20:51:31 10° NNW 20:55:34 25° WNW 20:59:30 10° WSW visible
12 Mar 9.8 06:22:08 10° SE 06:26:20 27° ENE 06:30:37 10° NNE visible
12 Mar 8.0 20:15:31 10° N 20:20:24 60° WNW 20:25:17 10° SSW visible
13 Mar 10.7 05:49:45 10° E 05:51:17 12° ENE 05:53:07 10° NE visible
13 Mar 7.5 19:40:15 10° NNE 19:45:06 54° ESE 19:49:59 10° S visible
13 Mar 10.5 21:21:11 10° NW 21:23:37 13° WNW 21:25:47 10° W visible
14 Mar 9.3 20:44:10 10° N 20:48:32 31° WNW 20:52:51 10° SW visible
